Regional Weather Roundup
Issued by NWS

Home | Current Version | Previous Version | Text Only | Print | Product List | Glossary On
Versions: 1 2 3 4 5 6 7 8 9 10 11 12 13 14 15 16 17 18 19 20 21 22 23 24 25 26 27 28 29 30 31 32 33 34 35 36 37 38 39 40 41 42 43 44 45 46 47 48 49 50
000
ASPQ40 PGUM 260312
RWRPQ
WEATHER ROUNDUP FOR THE MARIANAS AND MICRONESIA
NATIONAL WEATHER SERVICE TIYAN GU
100 PM CHST SAT JUL 26 2014

GUZ001>004-260400-
MARIANA ISLANDS-

CITY           SKY/WX    TMP DP  RH WIND       PRES   REMARKS
GUAM AIRPORT   RAIN      79  77  94 S5        29.85F
ANDERSEN AFB   LGT RAIN  75  75 100 SW8       29.85F
ROTA AIRPORT   LGT RAIN  77  75  94 S15       29.85F FOG
TINIAN AP      PTSUNNY   81  77  89 SE8       29.80F
SAIPAN AP      MOSUNNY   81  79  94 SE8       29.82F

$$

PMZ161-260400-
REPUBLIC OF PALAU-

CITY           SKY/WX    TMP DP  RH WIND       PRES   REMARKS
KOROR AP       PTSUNNY   84  82  94 SW17G39   29.76F HX 101
KOROR WSO      CLOUDY    81  77  89 W17       29.76F

$$

PMZ171>174-260400-
FEDERATED STATES OF MICRONESIA-

CITY           SKY/WX    TMP DP  RH WIND       PRES   REMARKS
YAP AIRPORT    CLOUDY    86  77  74 S16       29.76F HX  97
CHUUK AP       CLOUDY    84  79  84 NW17      29.81F HX  96
POHNPEI AP     LGT RAIN  79  77  94 S7        29.81F
POHNPEI WSO    LGT RAIN  75  73  94 SW8       29.89R
KOSRAE AP      NOT AVBL

$$

PMZ181-260400-
REPUBLIC OF THE MARSHALL ISLANDS-

CITY           SKY/WX    TMP DP  RH WIND       PRES   REMARKS
KWAJALEIN AP   PTSUNNY   82  75  78 NW6       29.80S
MAJURO AP      NOT AVBL
MAJURO WSO     MOSUNNY   86  77  74 SW8       29.80F HX  97

$$



USA.gov is the U.S. government's official web portal to all federal, state and local government web resources and services.